Starlink 4351

operational
NORAD ID: 53193 Int'l Des: 2022-084 Owner: SPXS Country: US Constellation: starlink
LEOCIRCULARRETROGRADESSO

Über Starlink 4351

Beschreibung wird geladen...

Live-Position

3D-Globus wird geladen...

Nächste Überflüge

Höhenverlauf

Altitude vs Time

uPlot chart will show altitude changes over time

Zweizeiliger Elementsatz

1 53193U 22084E 25346.73120791 -.00000009 00000-0 38534-5 0 9995
2 53193 97.6050 45.0627 0001229 107.2134 252.9225 15.01261517187288
Epoch: 12. Dez. 2025 • Age: 14 hours

Aktueller Status

Höhe 587.8 km
Geschwindigkeit 7.56 km/s
Subsatellitenpunkt -62.94°S, 16.89°E
Startdatum 22. Juli 2022
Alter 3.3 years
Typ internet

Technische Details

Klassifizierung Payload
Masse 297.00 kg
Trockenmasse 275.00 kg
Gesamtmasse 297.00 kg
Länge 0.20 m
Durchmesser 2.80 m
Spannweite 9.00 m
Form Box + pan
Hersteller SPXS
Bus-Typ Starlink
Phasenstatus In Orbit
Besitzer/Staat SPXS/US

Große Konstellationen

Loading constellations...